Regional Weather Roundup
Issued by NWS

Home | Current Version | Previous Version | Graphics & Text | Print | Product List | Glossary On
Versions: 1 2 3 4 5 6 7 8 9 10 11 12 13 14 15 16 17 18 19 20 21 22 23 24 25 26 27 28 29 30 31 32 33 34 35 36 37 38 39 40 41 42 43 44 45 46 47 48 49 50
000
ASUS43 KLOT 020708
RWRIL

ILLINOIS REGIONAL WEATHER ROUNDUP
NATIONAL WEATHER SERVICE CHICAGO/ROMEOVILLE IL
200 AM CDT THU JUL 02 2015

NOTE: "FAIR" INDICATES FEW OR NO CLOUDS BELOW 12,000 FEET WITH NO
SIGNIFICANT WEATHER AND/OR OBSTRUCTIONS TO VISIBILITY.

* THESE STATIONS ARE NOT UNDER NWS QUALITY CONTROL. THEY ALSO MAY NOT
  REPORT WEATHER SUCH AS PRECIPITATION OR FOG.

ILZ001-002-007-009-015-016-024-020800-
NORTHWEST ILLINOIS

CITY           SKY/WX    TMP DP  RH WIND       PRES   REMARKS
MOLINE         MOCLDY    62  54  74 E16       29.98R
STERLING*      PTCLDY    55  52  88 E6        30.00F
$$

ILZ003-004-008-010-011-017-018-020800-
NORTH CENTRAL ILLINOIS

CITY           SKY/WX    TMP DP  RH WIND       PRES   REMARKS
ROCKFORD       CLEAR     54  49  83 E6        30.04R
$$

ILZ005-006-012>014-019>023-020800-
NORTHEAST ILLINOIS

CITY           SKY/WX    TMP DP  RH WIND       PRES   REMARKS
CHICAGO-OHARE  PTCLDY    53  50  89 N5        29.99S
CHICAGO-MIDWAY PTCLDY    57  51  80 N7        29.99S
AURORA         PTCLDY    51  48  89 N6        30.01R
JOLIET*        PTCLDY    55  52  90 CALM      29.99S
WAUKEGAN       CLEAR     47  46  97 CALM      30.00R FOG
DUPAGE AIRPORT CLEAR     52  49  89 N3        29.99S
WHEELING       CLEAR     52  49  89 CALM      30.01S
ROMEOVILLE*    PTCLDY    53  50  89 NE8       29.99F
NORTHERLY ISL    N/A     56  52  86 NE10        N/A
$$

LMZ740>746-020800-
SOUTHERN LAKE MICHIGAN

STATION/POSITION SKY/WX   TEMP    WIND        PRES    VSBY  WAVE
                          AIR SEA DIR/SP/G                  HT/PER
                          (F)     (DEG/KT/KT) (MB)    (MI)  (FT/S)
HARRISON CRIB              55     360/ 13/ 14   N/A
BURNHAM HARBOR             56      30/  8/ 11   N/A
CALUMET HARBOR             56     360/  7/ 10   N/A
MICHIGAN CITY              59      20/ 11/ 12   N/A
MICHIGAN CITY 6N           60 64   60/ 10/ 14   N/A           3/ 5
ST. JOSEPH                 58 63                N/A           3/ 5
$$

ILZ025>027-034>036-040-047-049-050-058-095>099-020800-
WEST-CENTRAL ILLINOIS

CITY           SKY/WX    TMP DP  RH WIND       PRES   REMARKS
QUINCY         MOCLDY    68  66  93 E8        29.91F
$$

ILZ028>032-037-038-041>044-048-051>054-059>061-020800-
CENTRAL ILLINOIS

CITY           SKY/WX    TMP DP  RH WIND       PRES   REMARKS
BLOOMINGTON    CLOUDY    60  55  83 NE10      29.97S
DECATUR        CLOUDY    62  57  83 E8        29.94R
PEORIA         CLOUDY    64  53  67 NE12      29.96R
SPRINGFIELD    CLOUDY    67  60  78 E14G21    29.93R
TAYLORVILLE    NOT AVBL
$$

ILZ033-039-045-046-055>057-062-063-020800-
EAST-CENTRAL ILLINOIS

CITY           SKY/WX    TMP DP  RH WIND       PRES   REMARKS
CHAMPAIGN      CLOUDY    61  53  75 NE9       29.94S
MATTOON        LGT RAIN  62  57  83 NE9       29.91F
$$

ILZ079-100>102-020800-
SOUTHWEST ILLINOIS

CITY           SKY/WX    TMP DP  RH WIND       PRES   REMARKS
BELLEVILLE     DRIZZLE   72  72 100 NE5       29.83F
CAHOKIA*       LGT RAIN  73  70  90 E5        29.84F
$$

ILZ064>066-069>071-074>076-080>082-084>086-088>090-092>094-020800-
SOUTH-CENTRAL ILLINOIS

CITY           SKY/WX    TMP DP  RH WIND       PRES   REMARKS
CARBONDALE     TSTM      72  70  93 SE9       29.87R
MT. VERNON     CLOUDY    72  68  88 CALM      29.83F
CENTRALIA*     LGT RAIN  72  70  92 N3        29.83
$$

ILZ067-068-072-073-078-083-087-091-020800-
SOUTHEAST ILLINOIS

CITY           SKY/WX    TMP DP  RH WIND       PRES   REMARKS
LAWRENCEVILLE  RAIN      69  69 100 SE3       29.88F
$$

ABBREVIATIONS USED IN REMARKS
   TC - TEMPERATURE IN CELSIUS
  WCI - WIND CHILL INDEX
   HX - HEAT INDEX
  VSB - VISIBILITY
$$



USA.gov is the U.S. government's official web portal to all federal, state and local government web resources and services.